[[{"header":{"parameterUnit":"m.s-1","parameterCategory":1,"la1":30.2991,"la2":30.254,"lo1":-89.0895,"lo2":-89.0444,"dy":0.0017,"dx":0.0017,"nx":28,"ny":28,"refTime":"2025-03-15T09:00:00:Z","depth":0,"parameterNumber":2,"parameterNumberName":"U-component_of_WINDS"},"data":[0,0,0,0,0,0,0,0,0,0,0,0,0,0,0,0,0,0,0,0,0,0,0,0,0,0,0,0,0,0,0,0,0,0,0,0,0,0,0,0,0,0,0,0,0,0,0,0,0,0,0,0,0,0,0,0,0,0,-3.6783,-3.6785,0,-3.69,-3.6901,-3.6902,-3.6931,-3.693,-3.6929,-3.6928,-3.7049,-3.7053,-3.7057,0,0,0,0,0,0,0,0,0,0,0,0,0,-3.6588,-3.6592,-3.6783,-3.6785,-3.6786,-3.6899,-3.6901,-3.6903,-3.6931,-3.693,-3.6929,-3.6928,-3.7048,-3.7053,-3.7057,0,0,0,0,0,0,0,0,0,0,0,0,0,-3.6686,-3.6593,-3.6783,-3.6814,-3.6818,-3.6899,-3.6901,-3.6903,-3.6931,-3.693,-3.6929,-3.6927,-3.7047,-3.7052,-3.7058,-3.7118,0,0,-3.7076,-3.7079,0,0,0,0,0,0,0,0,-3.668,-3.6693,-3.6808,-3.6812,-3.6816,-3.6899,-3.6877,-3.6975,-3.6931,-3.6888,-3.6928,-3.6927,-3.7001,-3.701,-3.7035,-3.7123,-3.7129,-3.7077,-3.708,-3.7083,-3.7085,0,0,0,0,0,0,0,-3.6673,-3.6688,-3.6829,-3.6809,-3.6815,-3.6823,-3.6835,-3.6895,-3.6949,-3.6892,-3.6894,-3.6907,-3.7003,-3.7029,-3.7038,-3.713,-3.7077,-3.7082,-3.7085,-3.7088,-3.7275,-3.7276,0,0,0,0,0,0,-3.6661,-3.6682,-3.6826,-3.6833,-3.6744,-3.6827,-3.6841,-3.6874,-3.6949,-3.6959,-3.6908,-3.6908,-3.7019,-3.7031,-3.7042,-3.7116,-3.7083,-3.7088,-3.7092,-3.7273,-3.7275,-3.7277,0,0,0,0,0,0,-3.6657,-3.6673,-3.6821,-3.6758,-3.6778,-3.6832,-3.6868,-3.6877,-3.6903,-3.6961,-3.6971,-3.6925,-3.7019,-3.7034,-3.7099,-3.7121,-3.7091,-3.7096,-3.7272,-3.7274,-3.7276,-3.7266,0,0,0,0,0,0,-3.6651,-3.6672,-3.6694,-3.6758,-3.6781,-3.6875,-3.687,-3.688,-3.6913,-3.6914,-3.6979,-3.6989,-3.7019,-3.709,-3.7104,-3.7129,-3.7101,-3.727,-3.7273,-3.7275,-3.7264,-3.7267,-3.727,0,0,0,0,0,-3.6644,-3.6687,-3.6695,-3.6712,-3.681,-3.6876,-3.6889,-3.6922,-3.6914,-3.6938,-3.6976,-3.6987,-3.7117,-3.7096,-3.7113,-3.7139,-3.7269,-3.7272,-3.7275,-3.7263,-3.7267,-3.727,0,0,0,0,0,0,-3.6624,-3.6696,-3.6706,-3.6771,-3.6817,-3.688,-3.6911,-3.6924,-3.6974,-3.6973,-3.7013,-3.7027,-3.709,-3.7122,-3.7097,-3.7201,-3.7193,-3.7199,-3.7178,-3.7182,-3.7184,-3.7175,-3.7106,0,0,0,0,0,-3.6628,-3.6674,-3.6735,-3.6787,-3.6809,-3.6856,-3.6886,-3.6908,-3.6957,-3.6977,-3.7019,-3.7068,-3.712,-3.7153,-3.7204,-3.727,-3.7284,-3.7296,-3.7299,-3.7301,-3.7306,-3.7343,-3.7349,-3.7287,-3.7287,-3.7287,0,0,-3.6635,-3.668,-3.6707,-3.6784,-3.6822,-3.687,-3.6872,-3.6923,-3.696,-3.6985,-3.7048,-3.7082,-3.7139,-3.7204,-3.7235,-3.7233,-3.7327,-3.7305,-3.7306,-3.731,-3.7347,-3.7353,-3.7358,-3.7289,-3.7289,-3.7288,0,0,-3.6672,-3.6711,-3.6758,-3.6797,-3.6854,-3.6885,-3.6897,-3.6959,-3.6981,-3.7046,-3.7066,-3.7111,-3.7199,-3.7238,-3.727,-3.7324,-3.7336,-3.734,-3.7353,-3.739,-3.7394,-3.7399,-3.7417,-3.7424,-3.7345,-3.7345,-3.7345,0,-3.6674,-3.6746,-3.6781,-3.6831,-3.6864,-3.689,-3.6938,-3.6974,-3.7046,-3.7069,-3.7065,-3.7176,-3.7216,-3.7291,-3.7304,-3.733,-3.7344,-3.7331,-3.7391,-3.7396,-3.74,-3.7419,-3.7426,-3.7345,-3.7345,-3.7345,-3.7345,0,-3.6745,-3.6796,-3.6827,-3.6895,-3.6932,-3.6981,-3.7024,-3.7058,-3.7077,-3.7108,-3.7174,-3.7223,-3.7285,-3.7305,-3.7324,-3.7383,-3.7379,-3.7383,-3.7374,-3.7406,-3.7423,-3.7431,-3.7345,-3.7345,-3.7345,-3.7345,0,0,-3.6772,-3.6859,-3.687,-3.6901,-3.6967,-3.7007,-3.7058,-3.7117,-3.7145,-3.7195,-3.7238,-3.7313,-3.7317,-3.7353,-3.7377,-3.7409,-3.7448,-3.7408,-3.741,-3.7413,-3.7516,-3.7512,-3.7519,-3.7457,-3.7459,-3.746,-3.7511,0,-3.6817,-3.6907,-3.694,-3.7014,-3.7061,-3.7087,-3.7131,-3.7177,-3.7209,-3.7254,-3.729,-3.7341,-3.7343,-3.7364,-3.7397,-3.7436,-3.7469,-3.7433,-3.7498,-3.75,-3.7481,-3.7529,-3.7524,-3.757,-3.7518,-3.7519,-3.752,0,-3.6881,-3.693,-3.7008,-3.7069,-3.709,-3.7129,-3.7186,-3.7229,-3.7282,-3.7303,-3.7344,-3.7366,-3.7421,-3.7411,-3.7488,-3.7463,-3.7492,-3.7515,-3.7518,-3.7524,-3.7511,-3.7535,-3.7585,-3.7591,-3.7531,-3.7531,-3.753,0,-3.6891,-3.6977,-3.7035,-3.7061,-3.7134,-3.716,-3.7192,-3.7244,-3.7278,-3.7329,-3.7351,-3.7408,-3.7439,-3.7483,-3.752,-3.7509,-3.7593,-3.7586,-3.7612,-3.7611,-3.7627,-3.7626,-3.7682,-3.7648,-3.7648,-3.7648,-3.7648,0,-3.6936,-3.6983,-3.7041,-3.7076,-3.713,-3.7168,-3.7221,-3.7254,-3.7301,-3.7344,-3.7371,-3.7411,-3.7458,-3.7505,-3.7535,-3.7594,-3.7608,-3.7627,-3.7634,-3.7623,-3.7621,-3.7642,-3.7639,-3.765,-3.765,-3.7649,-3.7649,0,-3.6956,-3.6997,-3.7061,-3.7125,-3.7142,-3.7179,-3.7233,-3.727,-3.7303,-3.7357,-3.7372,-3.7425,-3.7481,-3.7523,-3.7597,-3.7617,-3.768,-3.7688,-3.7661,-3.7664,-3.7687,-3.7684,-3.7758,-3.7769,-3.7729,-3.773,-3.773,0,-3.6982,-3.7019,-3.7086,-3.7116,-3.7147,-3.7196,-3.7231,-3.7271,-3.7306,-3.7369,-3.7398,-3.7456,-3.7505,-3.7594,-3.7639,-3.7696,-3.7705,-3.7727,-3.7713,-3.7702,-3.7704,-3.7701,-3.7704,-3.7728,-3.7728,-3.7728,-3.7729,0,-3.7023,-3.7041,-3.7089,-3.7144,-3.7184,-3.723,-3.7276,-3.73,-3.7349,-3.7387,-3.7444,-3.7482,-3.7557,-3.7614,-3.7676,-3.771,-3.7727,-3.7733,-3.7741,-3.773,-3.7713,-3.7722,-3.7665,-3.773,-3.773,-3.773,-3.773,-3.773,-3.7046,-3.708,-3.7132,-3.7185,-3.7224,-3.7267,-3.7303,-3.7341,-3.7389,-3.7453,-3.7474,-3.7533,-3.7587,-3.7671,-3.7706,-3.7753,-3.7753,-3.7766,-3.7769,-3.7772,-3.777,-3.7707,-3.7765,-3.7765,-3.7765,-3.7765,-3.7765,0,-3.7088,-3.7123,-3.7171,-3.7234,-3.7276,-3.7289,-3.7341,-3.7375,-3.7427,-3.7475,-3.7522,-3.7588,-3.7645,-3.7695,-3.7753,-3.7782,-3.7792,-3.7796,-3.7794,-3.7801,-3.7768,-3.7753,-3.7787,-3.7787,-3.7787,-3.7787,-3.7787,-3.7787,-3.7114,-3.7172,-3.7196,-3.7273,-3.7309,-3.7366,-3.7395,-3.7435,-3.7473,-3.7546,-3.7592,-3.7624,-3.7673,-3.7736,-3.7788,-3.7802,-3.7822,-3.7824,-3.7839,-3.7806,-3.7804,-3.7801,-3.7788,-3.7828,-3.7828,-3.7869,-3.7869,-3.7869]},{"header":{"parameterUnit":"m.s-1","parameterCategory":1,"la1":30.2991,"la2":30.254,"lo1":-89.0895,"lo2":-89.0444,"dy":0.0017,"dx":0.0017,"nx":28,"ny":28,"refTime":"2025-03-15T09:00:00:Z","depth":0,"parameterNumber":3,"parameterNumberName":"V-component_of_WINDS"},"data":[0,0,0,0,0,0,0,0,0,0,0,0,0,0,0,0,0,0,0,0,0,0,0,0,0,0,0,0,0,0,0,0,0,0,0,0,0,0,0,0,0,0,0,0,0,0,0,0,0,0,0,0,0,0,0,0,0,0,6.6557,6.6557,0,6.6573,6.6573,6.6573,6.6539,6.6538,6.6537,6.6536,6.655,6.6551,6.6553,0,0,0,0,0,0,0,0,0,0,0,0,0,6.6499,6.65,6.6557,6.6557,6.6558,6.6573,6.6573,6.6573,6.654,6.6538,6.6537,6.6536,6.655,6.6551,6.6553,0,0,0,0,0,0,0,0,0,0,0,0,0,6.652,6.6501,6.6557,6.6543,6.6542,6.6573,6.6573,6.6573,6.654,6.6538,6.6537,6.6535,6.6549,6.6551,6.6553,6.6598,0,0,6.6559,6.656,0,0,0,0,0,0,0,0,6.6519,6.6523,6.6545,6.6544,6.6543,6.6553,6.6557,6.6582,6.654,6.654,6.6536,6.6534,6.6552,6.6554,6.656,6.6599,6.6599,6.656,6.6561,6.6562,6.6562,0,0,0,0,0,0,0,6.6518,6.6522,6.6563,6.6545,6.6544,6.6536,6.6537,6.6562,6.6555,6.654,6.6538,6.654,6.6551,6.6558,6.656,6.66,6.656,6.6561,6.6563,6.6563,6.668,6.6682,0,0,0,0,0,0,6.6518,6.6521,6.6563,6.6564,6.6527,6.6538,6.6539,6.6551,6.6555,6.6554,6.6542,6.6539,6.6556,6.6558,6.6561,6.6616,6.6562,6.6564,6.6565,6.6678,6.6681,6.6683,0,0,0,0,0,0,6.6517,6.6522,6.6562,6.6542,6.6546,6.6541,6.6554,6.6552,6.6559,6.6556,6.6554,6.655,6.6554,6.6558,6.659,6.6616,6.6565,6.6566,6.6676,6.6679,6.6682,6.6727,0,0,0,0,0,0,6.6516,6.6522,6.6539,6.6542,6.6547,6.6591,6.6556,6.6554,6.6563,6.6559,6.6563,6.6563,6.6553,6.6587,6.6592,6.6618,6.6568,6.6674,6.6677,6.6681,6.6723,6.6731,6.6737,0,0,0,0,0,6.6514,6.655,6.654,6.6545,6.6568,6.6593,6.6596,6.6585,6.6565,6.6583,6.6581,6.6562,6.6613,6.6591,6.6596,6.6623,6.6672,6.6676,6.668,6.672,6.6729,6.6737,0,0,0,0,0,0,6.6548,6.655,6.6539,6.6577,6.6585,6.6587,6.6608,6.6595,6.6608,6.6604,6.659,6.6591,6.6627,6.6628,6.6604,6.6669,6.6639,6.6644,6.6667,6.6676,6.6683,6.6682,6.657,0,0,0,0,0,6.656,6.658,6.658,6.6614,6.6619,6.6613,6.6624,6.6615,6.6623,6.6626,6.6626,6.6634,6.6652,6.6664,6.668,6.6723,6.6724,6.6744,6.6751,6.6757,6.6763,6.6789,6.6798,6.6696,6.6696,6.6696,0,0,6.6585,6.6588,6.6602,6.6621,6.6627,6.6649,6.6616,6.664,6.6656,6.6629,6.6661,6.6662,6.667,6.6709,6.6726,6.6711,6.6791,6.6763,6.6768,6.6769,6.6794,6.6803,6.6812,6.6699,6.6699,6.6698,0,0,6.6642,6.6646,6.6676,6.6683,6.6692,6.6689,6.6696,6.6701,6.6701,6.6733,6.6714,6.6733,6.6763,6.6771,6.6779,6.6843,6.6827,6.6848,6.6886,6.6912,6.692,6.6927,6.6952,6.6961,6.6853,6.6853,6.6853,0,6.6671,6.6704,6.6693,6.6719,6.6729,6.6708,6.6739,6.6746,6.6759,6.6767,6.675,6.6791,6.6794,6.6836,6.6852,6.6858,6.6868,6.6848,6.692,6.6927,6.6933,6.6957,6.6966,6.6856,6.6856,6.6855,6.6855,0,6.6741,6.6764,6.6787,6.6803,6.6816,6.6844,6.6839,6.6853,6.6844,6.6843,6.6877,6.6881,6.6899,6.6908,6.6899,6.695,6.6941,6.6922,6.6892,6.6946,6.6968,6.6977,6.686,6.6859,6.6858,6.6857,0,0,6.6818,6.683,6.6839,6.6848,6.6858,6.6876,6.6904,6.6924,6.6937,6.6948,6.6973,6.7001,6.6985,6.6994,6.6985,6.7007,6.7061,6.6986,6.6986,6.7002,6.7121,6.7136,6.7147,6.7051,6.7052,6.7054,6.7121,0,6.6876,6.6926,6.6919,6.6967,6.699,6.6971,6.6997,6.7006,6.7006,6.7026,6.7025,6.7047,6.7023,6.7029,6.705,6.705,6.7085,6.7045,6.7075,6.7076,6.7075,6.7158,6.7173,6.7236,6.7129,6.7131,6.7132,0,6.695,6.6967,6.7018,6.7029,6.7038,6.706,6.7079,6.7098,6.7109,6.7108,6.712,6.7108,6.7138,6.7107,6.7149,6.7122,6.7134,6.7137,6.7139,6.7142,6.7108,6.7165,6.7256,6.7266,6.7145,6.7144,6.7143,0,6.7005,6.7039,6.7075,6.7083,6.7095,6.7112,6.7118,6.7128,6.7141,6.7157,6.7166,6.7185,6.7195,6.7211,6.7205,6.7183,6.7249,6.7217,6.725,6.725,6.7265,6.7264,6.7361,6.727,6.727,6.727,6.727,0,6.7071,6.7104,6.71,6.7123,6.716,6.7151,6.7188,6.7191,6.7201,6.7225,6.7209,6.7231,6.7221,6.7243,6.7239,6.7276,6.728,6.7281,6.728,6.7283,6.7284,6.7291,6.7288,6.7273,6.7272,6.7271,6.7271,0,6.7138,6.7137,6.7175,6.7185,6.7188,6.7215,6.7223,6.7245,6.7245,6.7275,6.7282,6.7281,6.7307,6.7303,6.733,6.7327,6.7374,6.7367,6.7371,6.737,6.7404,6.7402,6.751,6.7525,6.7423,6.7424,6.7425,0,6.7181,6.7207,6.722,6.7235,6.7243,6.7267,6.7281,6.7275,6.729,6.7307,6.7327,6.7352,6.7371,6.7412,6.7415,6.7437,6.743,6.7467,6.7433,6.7438,6.7434,6.7433,6.7437,6.7474,6.7475,6.7476,6.7477,0,6.7259,6.7258,6.728,6.7302,6.732,6.7337,6.7352,6.7365,6.7361,6.7379,6.7406,6.7421,6.7451,6.7476,6.7497,6.7503,6.749,6.7487,6.7497,6.7501,6.7504,6.7505,6.7391,6.7485,6.7484,6.7484,6.7483,6.7483,6.7317,6.734,6.7354,6.7379,6.7391,6.7406,6.7428,6.7432,6.7455,6.7479,6.7474,6.7505,6.7518,6.7546,6.7554,6.7579,6.7565,6.7578,6.7581,6.7585,6.759,6.7499,6.7582,6.7582,6.7582,6.7581,6.7581,0,6.7396,6.7405,6.7429,6.7452,6.7473,6.746,6.7477,6.7495,6.7523,6.7537,6.7557,6.7589,6.7614,6.762,6.7644,6.7663,6.7658,6.7669,6.7669,6.7671,6.76,6.759,6.7674,6.7673,6.7673,6.7673,6.7673,6.7673,6.744,6.7479,6.748,6.7526,6.7534,6.7566,6.7577,6.7592,6.7603,6.7641,6.7662,6.7666,6.7677,6.7703,6.7726,6.7727,6.7737,6.7752,6.7751,6.7685,6.7675,6.7667,6.7658,6.7754,6.7754,6.7821,6.7821,6.7822]}]]